Погода в Эдмонтоне

Канада     53°31′50″N   113°30′42″W
темп.,
°C
ветер,
м/с
пор.,
м/с
влажн.,
%
обл.,
%
осадки,
мм/ч
давл.,
гПа
погр.,
м
17 января, вс
вс1723:00−2юз3478100 0.0 101881
02:00−2ююз2375100 0.0 101526
05:00−5ююз348395 0.0 101466
08:00−4з3990100 0.0 1012224
11:000з41183100 0.1 1011364
14:00+1зсз5148291 0.0 1010932
17:00+1сз8149795 0.1 1012970
20:00−3сз4128982 0.2 1016362
18 января, пн
пн1823:00−3сз249891 0.5 1019103
02:00−1зсз51481100 0.5 1020535
05:00−1зсз6197572 0.5 1020696
08:00−1зсз617753 0.0 1022616
11:000зсз716722 0.0 1023639
14:00+1зсз715710 0.0 1024739
17:00−1зсз412740 0.0 1025272
20:00−4зсз487815 0.0 1028153
19 января, вт
вт1923:00−5з368315 0.0 102894
02:00−5юз348261 0.0 102665
05:00−6ююз357554 0.0 102296
08:00−6ююз357573 0.0 101786
11:00−3ююз367283 0.0 1012117
14:000ю4974100 0.0 1004220
17:00+1з41171100 0.0 1000254
20:00+1зсз6208267 0.3 10021449
20 января, ср
ср2023:00−2зсз8206248 0.5 10041173
02:00−3з620690 0.0 10041200
05:00−2зсз9216212 0.0 10061140
08:00−2зсз9206421 0.0 10071119
11:00−2зсз8196610 0.0 10081324
14:00−1сз9206650 0.0 10091488
17:00−3зсз7167237 0.0 1013991
20:00−4сз5167918 0.0 1016843
21 января, чт
чт2123:00−5сз4128345 0.0 1020560
02:00−7сз31088100 0.0 1022546
05:00−8сз3118797 0.0 1024546
08:00−10сз398510 0.0 1026311
11:00−9сз398011 0.0 1026643
14:00−8ссз497148 0.0 1026699
17:00−11ссз247924 0.0 1027121
20:00−12ссз22800 0.0 102894